Historique des stations

Station météo de Etrechet

Altitude de la station : 156 m







Données météorologiques pour le 28/01/2022
Date
Heure
Températures Humidité Point de rosée Vitesse
du vent
Direction Rafales Windchill Pression Pluviométrie
Cumul
Date
Heure
Températures Humidité Point de rosée Vitesse
du vent
Direction Rafales Windchill Pression Pluviométrie
Cumul
28/01/2022 16:302.8 °C97 %2.2 °C2 km/hE14 km/h2.2 1037 hPa0.2 mm
28/01/2022 16:152.9 °C97 %2.8 °C3 km/hESE14 km/h1.7 1037 hPa0.2 mm
28/01/2022 16:003.0 °C97 %2.8 °C3 km/hS14 km/h1.7 1037 hPa0.2 mm
28/01/2022 15:453.0 °C97 %2.8 °C-ESE14 km/h2.8 1038 hPa0.2 mm
28/01/2022 15:303.0 °C97 %2.8 °C-ESE14 km/h2.8 1038 hPa0.2 mm
28/01/2022 15:153.1 °C97 %2.8 °C-SE14 km/h3.3 1038 hPa0.2 mm
28/01/2022 14:593.0 °C97 %2.8 °C-E14 km/h2.8 1038 hPa0.2 mm
28/01/2022 14:443.0 °C97 %2.8 °C5 km/hE14 km/h1.7 1038 hPa0.2 mm
28/01/2022 14:293.0 °C97 %2.8 °C-SSE14 km/h2.8 1038 hPa0.2 mm
28/01/2022 14:143.0 °C97 %2.8 °C5 km/hENE14 km/h1.7 1038 hPa0.2 mm
28/01/2022 13:593.0 °C97 %2.8 °C5 km/hE14 km/h1.7 1038 hPa0.2 mm
28/01/2022 13:442.9 °C97 %2.8 °C-E14 km/h2.8 1038 hPa0.2 mm
28/01/2022 13:292.9 °C97 %2.8 °C3 km/hESE13 km/h1.7 1038 hPa0.2 mm
28/01/2022 13:142.9 °C97 %2.8 °C11 km/hE13 km/h0.0 1038 hPa0.2 mm
28/01/2022 12:592.8 °C97 %2.2 °C5 km/hSE13 km/h1.7 1039 hPa0.2 mm
28/01/2022 12:442.8 °C97 %2.2 °C10 km/hE13 km/h0.0 1039 hPa0.2 mm
28/01/2022 12:292.8 °C97 %2.2 °C10 km/hE13 km/h0.0 1039 hPa0.2 mm
28/01/2022 12:142.8 °C97 %2.2 °C5 km/hESE13 km/h1.7 1039 hPa0.2 mm
28/01/2022 11:592.8 °C97 %2.2 °C6 km/hENE13 km/h1.1 1039 hPa0.2 mm
28/01/2022 11:442.8 °C97 %2.2 °C6 km/hESE11 km/h1.1 1039 hPa0.2 mm
28/01/2022 11:292.9 °C97 %2.8 °C8 km/hENE10 km/h0.6 1039 hPa0.2 mm
28/01/2022 11:142.8 °C97 %2.2 °C5 km/hESE8 km/h1.7 1039 hPa0.2 mm
28/01/2022 10:592.7 °C97 %2.2 °C-SSE8 km/h2.8 1039 hPa0.2 mm
28/01/2022 10:442.5 °C97 %2.2 °C-SSE8 km/h2.8 1039 hPa0.2 mm
28/01/2022 10:292.3 °C97 %2.2 °C-SSE8 km/h2.2 1038 hPa0.2 mm
28/01/2022 10:142.1 °C97 %1.7 °C-S8 km/h2.2 1038 hPa0.2 mm
28/01/2022 09:592.0 °C97 %1.7 °C-S8 km/h2.2 1038 hPa0.2 mm
28/01/2022 09:441.8 °C97 %1.7 °C-S8 km/h1.7 1038 hPa0.2 mm
28/01/2022 09:291.7 °C97 %1.1 °C-S8 km/h1.7 1038 hPa0.2 mm
28/01/2022 09:141.6 °C97 %1.1 °C-S8 km/h1.7 1037 hPa0.2 mm
28/01/2022 08:581.5 °C97 %1.1 °C-S8 km/h1.7 1037 hPa0.2 mm
28/01/2022 08:441.4 °C97 %1.1 °C-S8 km/h1.7 1037 hPa0.2 mm
28/01/2022 08:291.3 °C97 %1.1 °C-S8 km/h1.1 1037 hPa0.2 mm
28/01/2022 08:141.3 °C97 %1.1 °C-S8 km/h1.1 1037 hPa0.2 mm
28/01/2022 07:591.3 °C97 %1.1 °C-S8 km/h1.1 1037 hPa0.2 mm
28/01/2022 07:441.3 °C97 %1.1 °C-S8 km/h1.1 1037 hPa0.2 mm
28/01/2022 07:291.2 °C97 %1.1 °C8 km/hS8 km/h-1.7 1036 hPa0.2 mm
28/01/2022 07:141.2 °C97 %0.6 °C-SO6 km/h1.1 1036 hPa0.2 mm
28/01/2022 07:001.2 °C97 %0.6 °C---1.1 1037 hPa0.2 mm
28/01/2022 06:591.2 °C97 %0.6 °C-SO6 km/h1.1 1037 hPa0.2 mm
28/01/2022 06:451.1 °C97 %0.6 °C---1.1 1037 hPa0.2 mm
28/01/2022 06:441.1 °C97 %0.6 °C-SO6 km/h1.1 1037 hPa0.2 mm
28/01/2022 06:301.1 °C97 %0.6 °C---1.1 1036 hPa0.2 mm
28/01/2022 06:291.1 °C97 %0.6 °C-SO6 km/h1.1 1036 hPa0.2 mm
28/01/2022 06:151.1 °C97 %0.6 °C---1.1 1036 hPa0.2 mm
28/01/2022 06:131.1 °C97 %0.6 °C-SO6 km/h1.1 1036 hPa0.2 mm
28/01/2022 06:001.1 °C97 %0.6 °C---1.1 1036 hPa0.2 mm
28/01/2022 05:591.1 °C97 %0.6 °C-SO6 km/h1.1 1036 hPa0.2 mm
28/01/2022 05:451.0 °C97 %0.6 °C---1.1 1036 hPa0.2 mm
28/01/2022 05:441.0 °C97 %0.6 °C-SO6 km/h1.1 1036 hPa0.2 mm
28/01/2022 05:301.0 °C97 %0.6 °C---1.1 1036 hPa0.2 mm
28/01/2022 05:290.9 °C97 %0.6 °C-SO6 km/h1.1 1036 hPa0.2 mm
28/01/2022 05:150.9 °C97 %0.6 °C---1.1 1036 hPa0.2 mm
28/01/2022 05:140.9 °C97 %0.6 °C-SO6 km/h1.1 1036 hPa0.2 mm
28/01/2022 05:000.9 °C97 %0.6 °C---1.1 1036 hPa0.2 mm
28/01/2022 04:590.9 °C97 %0.6 °C-SO6 km/h1.1 1036 hPa0.2 mm
28/01/2022 04:450.9 °C97 %0.6 °C---1.1 1036 hPa0.2 mm
28/01/2022 04:440.9 °C97 %0.6 °C-SO6 km/h1.1 1036 hPa0.2 mm
28/01/2022 04:300.9 °C97 %0.6 °C---1.1 1036 hPa0.2 mm
28/01/2022 04:290.9 °C97 %0.6 °C-SO6 km/h1.1 1036 hPa0.2 mm
28/01/2022 04:150.9 °C97 %0.6 °C---1.1 1036 hPa0.2 mm
28/01/2022 04:140.9 °C97 %0.6 °C-SO6 km/h1.1 1036 hPa0.2 mm
28/01/2022 04:000.8 °C97 %0.6 °C---1.1 1036 hPa0.2 mm
28/01/2022 03:590.8 °C97 %0.6 °C-SO6 km/h1.1 1036 hPa0.2 mm
28/01/2022 03:450.8 °C97 %0.6 °C---0.6 1036 hPa0.2 mm
28/01/2022 03:440.8 °C97 %0.6 °C-SO6 km/h0.6 1036 hPa0.2 mm
28/01/2022 03:300.8 °C97 %0.6 °C-SO6 km/h0.6 1036 hPa0.2 mm
28/01/2022 03:150.7 °C97 %0.6 °C-SO6 km/h0.6 1036 hPa0.2 mm
28/01/2022 03:000.7 °C97 %0.6 °C-SO6 km/h0.6 1036 hPa0.2 mm
28/01/2022 02:450.7 °C97 %0.6 °C-SO6 km/h0.6 1036 hPa0.2 mm
28/01/2022 02:300.7 °C97 %0.6 °C-SO6 km/h0.6 1036 hPa0.2 mm
28/01/2022 02:140.7 °C97 %0.6 °C-SO6 km/h0.6 1036 hPa0.2 mm
28/01/2022 01:590.7 °C97 %0.6 °C-SO6 km/h0.6 1036 hPa0.2 mm
28/01/2022 01:440.7 °C97 %0.6 °C3 km/hSO6 km/h-0.6 1036 hPa-
28/01/2022 01:290.7 °C97 %0.6 °C3 km/hSO6 km/h-0.6 1036 hPa-
28/01/2022 01:140.7 °C97 %0.6 °C5 km/hSO6 km/h-0.6 1036 hPa-
28/01/2022 00:590.7 °C97 %0.6 °C3 km/hSO6 km/h-0.6 1036 hPa-
28/01/2022 00:440.7 °C97 %0.6 °C---0.6 1036 hPa-
28/01/2022 00:290.7 °C97 %0.6 °C---0.6 1036 hPa-
28/01/2022 00:140.6 °C97 %0.0 °C---0.6 1036 hPa-


Minima :

Température : 0.6 °C
Humidité : 97 %
Point de rosée : 0.0 °C
Vent moyen : 2 km/h
Windchill : -1.7
Pression atm. : 1036 hPa
Maxima :

Température : 3.1 °C
Humidité : 97 %
Point de rosée : 2.8 °C
Vent moyen : 11 km/h
Windchill : 3.3
Pression atm. : 1039 hPa
Rafales max : 14 km/h
Cumul de pluie sur 24H : 0.2 mm

Etrechet est une commune du département Indre (36).
La station météorologique du réseau de l'association la plus proche de Etrechet est celle de Saint-Maur



Icône Facebook Association Météo Centre Icône Twitter Association Météo Centre Icône Chaîne Youtube Association Météo Centre Icône contact Association Météo Centre Icône Insta Association Météo Centre